This demonstration page uses our WeatherBlox Daily Observations layout. Learn more.

Left ArrowRight Arrow

40.92501, -98.34201

Hourly Observations for January 24, 2015

Temp ( °F °C ) Dew Point ( °F °C ) Humidity (%) Winds ( mph kmh ) Pressure ( in mb ) Visibility ( mi km ) Precip ( " mm )
12:53 am 00:53 Clear 31 -0.6 26 -3.3 82 82 W 10 17 30.09 1019 10 16 0.00 0.00
1:53 am 01:53 Clear 31 -0.6 27 -2.8 85 85 W 12 19 30.07 1018 10 16 0.00 0.00
2:53 am 02:53 Clear 31 -0.6 26 -3.3 82 82 W 9 15 30.06 1018 10 16 0.00 0.00
3:53 am 03:53 Clear 31 -0.6 26 -3.3 82 82 W 10 17 30.04 1017 10 16 0.00 0.00
4:53 am 04:53 Clear 30 -1.1 25 -3.9 82 82 W 10 17 30.04 1017 10 16 0.00 0.00
5:53 am 05:53 Clear 31 -0.6 26 -3.3 82 82 W 12 19 30.03 1017 10 16 0.00 0.00
6:53 am 06:53 Clear 30 -1.1 25 -3.9 82 82 W 10 17 30.01 1016 10 16 0.00 0.00
7:53 am 07:53 Sunny 29 -1.7 25 -3.9 85 85 W 12 19 30.01 1016 10 16 0.00 0.00
8:53 am 08:53 Sunny 32 0 26 -3.3 79 79 W 13 20 30.00 1016 10 16 0.00 0.00
9:53 am 09:53 Sunny 41 5 29 -1.7 62 62 W 14 22 29.97 1015 10 16 0.00 0.00
10:53 am 10:53 Sunny 44 6.7 29 -1.7 55 55 W 15 24 29.96 1014 10 16 0.00 0.00
11:53 am 11:53 Sunny 46 7.8 28 -2.2 50 50 W 16 26 29.91 1013 10 16 0.00 0.00
12:53 pm 12:53 Sunny 50 10 28 -2.2 43 43 W 17 28 29.84 1011 10 16 0.00 0.00
1:53 pm 13:53 Mostly Cloudy 53 11.7 27 -2.8 37 37 W 15 24 29.80 1009 10 16 0.00 0.00
2:53 pm 14:53 Sunny 52 11.1 27 -2.8 38 38 W 16 26 29.78 1008 10 16 0.00 0.00
3:53 pm 15:53 Cloudy 51 10.6 27 -2.8 39 39 W 10 17 29.78 1008 10 16 0.00 0.00
4:53 pm 16:53 Cloudy with Light Rain 49 9.4 31 -0.6 50 50 W 12 19 29.77 1008 10 16 0.00 0.03
5:53 pm 17:53 Cloudy with Light Rain 47 8.3 35 1.7 63 63 WNW 17 28 29.77 1008 10 16 0.00 0.03
6:53 pm 18:53 Cloudy 48 8.9 40 4.4 74 74 NNW 17 28 29.78 1008 10 16 0.00 0.03
7:53 pm 19:53 Cloudy 44 6.7 38 3.3 79 79 W 8 13 29.77 1008 10 16 0.00 0.00
8:53 pm 20:53 Partly Cloudy 45 7.2 36 2.2 71 71 WNW 15 24 29.76 1008 10 16 0.00 0.00
9:53 pm 21:53 Mostly Clear 47 8.3 36 2.2 66 66 NW 23 37 29.77 1008 10 16 0.00 0.00
10:53 pm 22:53 Mostly Cloudy 45 7.2 35 1.7 68 68 NW 18 30 29.76 1008 10 16 0.00 0.00
11:53 pm 23:53 Mostly Cloudy 45 7.2 34 1.1 66 66 NW 24 39 29.76 1008 10 16 0.00 0.00

Powered by AerisWeather